Location: Bakhuizen
(52.8696°N, 5.4575°E)
Time: 22:12:49
(UTC+00:00)

Cosmos 773 Rocket - Pass Details

Date: 27 September 2021
Orbit: 745 x 777 km, 74.1° (Epoch: 19 October)

Event Time Altitude Azimuth Distance (km) Brightness Sun altitude
Rises 19:04:25 0° 327° (NNW) 3,248 8.1 -15.7°
Reaches altitude 10° 19:07:05 10° 316° (NW) 2,322 7.5 -16.1°
Maximum altitude 19:11:28 28° 260° (W) 1,436 6.1 -16.7°
Drops below altitude 10° 19:15:53 10° 203° (SSW) 2,320 6.5 -17.4°
Sets 19:18:33 0° 192° (SSW) 3,245 7.1 -17.7°
